Date,TemperatureHighF,TemperatureAvgF,TemperatureLowF,DewpointHighF,DewpointAvgF,DewpointLowF,HumidityHigh,HumidityAvg,HumidityLow,PressureMaxIn,PressureMinIn,WindSpeedMaxMPH,WindSpeedAvgMPH,GustSpeedMaxMPH,PrecipitationSumIn
2012-1-1,33.0,27.9,20.0,30.0,22.5,10.0,91,80,61,0.00,40.00,11,4,27,0.00
2012-1-2,19.0,15.6,7.0,10.0,1.2,-5.0,70,54,40,0.00,40.00,15,8,26,0.00
2012-1-3,21.0,11.4,-2.0,6.0,-1.8,-9.0,76,57,34,0.00,40.00,5,2,11,0.00
2012-1-4,31.0,21.9,14.0,15.0,11.7,6.0,84,65,50,0.00,40.00,7,3,14,0.00
2012-1-5,43.0,28.9,11.0,26.0,18.9,8.0,87,69,42,0.00,40.00,6,2,12,0.00
2012-1-6,45.0,40.6,33.0,28.0,24.2,21.0,67,52,39,0.00,40.00,6,4,15,0.00
2012-1-7,35.0,31.5,27.0,25.0,18.3,14.0,68,58,46,0.00,40.00,11,5,27,0.00
2012-1-8,40.0,28.2,18.0,26.0,19.0,14.0,89,70,43,0.00,40.00,6,2,12,0.00
2012-1-9,45.0,35.0,27.0,24.0,21.7,17.0,83,61,32,0.00,40.00,10,5,23,0.00
2012-1-10,50.0,33.0,19.0,31.0,22.0,17.0,91,69,32,0.00,40.00,9,2,15,0.00
2012-1-11,48.0,35.2,25.0,31.0,25.5,21.0,90,71,34,0.00,40.00,9,3,17,0.00
2012-1-12,32.0,22.3,17.0,26.0,16.5,10.0,89,78,62,0.00,40.00,13,8,24,0.00
2012-1-13,19.0,17.7,15.0,12.0,8.3,4.0,80,67,53,0.00,40.00,8,6,17,0.00
2012-1-14,17.0,13.7,9.0,8.0,4.8,1.0,79,68,51,0.00,40.00,3,1,6,0.00
2012-1-15,32.0,22.5,11.0,21.0,14.0,4.0,79,71,52,0.00,40.00,4,2,13,0.00
2012-1-16,35.0,28.7,21.0,24.0,21.0,19.0,91,74,58,0.00,40.00,7,3,11,0.00
2012-1-17,30.0,20.1,5.0,20.0,9.8,-4.0,80,65,57,0.00,40.00,11,7,21,0.00
2012-1-18,20.0,7.3,-9.0,14.0,-3.1,-14.0,83,64,40,0.00,40.00,7,3,15,0.00
2012-1-19,20.0,-1.6,-9.0,15.0,-15.2,-25.0,83,52,34,0.00,40.00,11,6,26,0.00
2012-1-20,7.0,-2.2,-17.0,-1.0,-10.6,-26.0,80,67,46,0.00,40.00,2,1,6,0.00
2012-1-21,20.0,3.9,-14.0,1.0,-8.1,-18.0,81,61,34,0.00,40.00,2,1,7,0.00
2012-1-22,29.0,22.0,15.0,26.0,16.8,4.0,92,81,63,0.00,40.00,5,2,14,0.00
2012-1-23,31.0,28.8,24.0,29.0,25.2,18.0,92,87,76,0.00,40.00,7,5,21,0.00
2012-1-24,27.0,21.1,11.0,18.0,13.0,6.0,83,71,53,0.00,40.00,9,3,17,0.00
2012-1-25,33.0,24.1,11.0,21.0,16.1,6.0,85,73,52,0.00,40.00,2,1,11,0.00
2012-1-26,33.0,30.0,25.0,30.0,25.8,21.0,90,84,64,0.00,40.00,7,3,17,0.00
2012-1-27,33.0,25.6,19.0,21.0,13.3,-99.9,82,65,55,0.00,40.00,7,-24,15,0.00
2012-1-28,27.0,23.3,20.0,12.0,8.6,5.0,72,55,41,0.00,40.00,11,6,27,0.00
2012-1-29,22.0,13.0,3.0,9.0,2.3,-6.0,81,64,39,0.00,40.00,7,2,17,0.00
2012-1-30,17.0,10.8,3.0,9.0,3.8,-3.0,78,74,67,0.00,40.00,2,1,7,0.00
2012-1-31,48.0,39.1,39.0,30.0,14.7,-99.9,69,48,39,0.00,40.00,8,-88,19,0.00
2012-2-1,37.0,31.5,22.0,29.0,24.8,20.0,90,76,64,0.00,40.00,4,2,19,0.00
2012-2-2,34.0,31.7,22.0,29.0,26.6,20.0,91,81,72,0.00,40.00,6,2,10,0.00
2012-2-3,36.0,28.1,19.0,29.0,16.3,-99.9,88,72,54,0.00,40.00,4,-52,9,0.00
2012-2-4,47.0,23.4,11.0,24.0,9.6,-99.9,89,68,23,0.00,40.00,4,-49,10,0.00
2012-2-5,41.0,25.9,17.0,25.0,14.3,-99.9,89,72,40,0.00,40.00,9,-44,16,0.00
2012-2-6,39.0,30.5,27.0,25.0,23.3,20.0,87,76,47,0.00,40.00,9,-4,18,0.00
2012-2-7,33.0,24.6,15.0,24.0,8.9,-99.9,70,55,34,0.00,40.00,12,-14,16,0.00
2012-2-8,32.0,20.5,10.0,6.0,-4.0,-13.0,68,39,13,0.00,40.00,6,-6,16,0.00
2012-2-9,37.0,24.9,16.0,18.0,5.8,-2.0,71,46,21,0.00,40.00,10,6,20,0.00
2012-2-10,28.0,17.8,7.0,25.0,5.9,-10.0,89,62,32,0.00,40.00,12,7,26,0.00
2012-2-11,15.0,8.6,2.0,-9.0,-11.8,-16.0,46,39,30,0.00,40.00,11,7,22,0.00
2012-2-12,30.0,17.5,8.0,-5.0,-8.2,-11.0,42,32,19,0.00,40.00,9,5,20,0.00
2012-2-13,32.0,20.1,1.0,24.0,8.2,-8.0,89,63,34,0.00,40.00,6,2,14,0.00
2012-2-14,33.0,29.9,27.0,27.0,23.5,21.0,90,78,62,0.00,40.00,6,2,11,0.00
2012-2-15,42.0,31.9,30.0,27.0,25.2,23.0,84,77,47,0.00,40.00,6,4,12,0.00
2012-2-16,36.0,32.9,32.0,29.0,20.4,15.0,90,61,48,0.00,40.00,6,4,16,0.00
2012-2-17,36.0,30.3,22.0,29.0,22.2,15.0,85,72,54,0.00,40.00,9,2,15,0.00
2012-2-18,34.0,25.9,15.0,20.0,9.0,-99.9,79,53,26,0.00,40.00,9,-7,15,0.00
2012-2-19,43.0,24.7,8.0,21.0,8.2,2.0,87,58,18,0.00,40.00,4,-44,13,0.00
2012-2-20,42.0,29.2,13.0,22.0,12.8,6.0,89,56,25,0.00,40.00,4,1,13,0.00
2012-2-21,38.0,33.7,31.0,33.0,25.8,19.0,90,74,59,0.00,40.00,11,-7,21,0.00
2012-2-22,39.0,30.9,22.0,21.0,16.1,11.0,81,56,32,0.00,40.00,10,5,21,0.00
2012-2-23,37.0,28.4,16.0,22.0,14.6,11.0,89,60,34,0.00,40.00,6,2,9,0.00
2012-2-24,31.0,28.3,23.0,22.0,15.7,9.0,70,59,50,0.00,40.00,10,5,21,0.00
2012-2-25,31.0,22.6,16.0,15.0,8.6,6.0,81,56,38,0.00,40.00,8,4,17,0.00
2012-2-26,44.0,31.4,19.0,22.0,15.6,12.0,81,54,34,0.00,40.00,14,5,31,0.00
2012-2-27,32.0,27.3,17.0,19.0,14.8,11.0,83,60,46,0.00,40.00,12,6,24,0.00
2012-2-28,33.0,27.8,17.0,29.0,18.4,-99.9,92,72,49,0.00,40.00,9,-7,21,0.00
2012-2-29,35.0,32.8,31.0,32.0,30.5,29.0,92,91,88,0.00,40.00,11,5,22,0.00
2012-3-1,34.0,32.1,30.0,29.0,24.7,22.0,88,74,61,0.00,40.00,9,3,14,0.00
2012-3-2,33.0,29.4,26.0,29.0,21.3,-99.9,90,81,70,0.00,40.00,9,-41,24,0.00
2012-3-3,33.0,24.0,25.0,24.0,1.0,-99.9,86,59,49,0.00,40.00,9,-152,19,0.00
2012-3-4,28.0,16.7,17.0,19.0,-15.8,-99.9,82,49,42,0.00,40.00,6,-240,12,0.00
2012-3-5,29.0,16.8,9.0,18.0,-4.3,-99.9,84,61,54,0.00,40.00,4,-139,16,0.00
2012-3-6,51.0,34.2,24.0,38.0,24.2,-99.9,87,71,55,0.00,40.00,4,-14,11,0.00
2012-3-7,56.0,48.4,36.0,49.0,35.4,-99.9,88,64,51,0.00,40.00,9,-5,24,0.00
2012-3-8,37.0,32.5,28.0,32.0,12.9,-99.9,83,49,21,0.00,40.00,10,-13,22,0.00
2012-3-9,31.0,24.2,17.0,6.0,-1.6,-99.9,49,35,21,0.00,40.00,11,-64,24,0.00
2012-3-10,65.0,44.3,27.0,19.0,7.8,-99.9,43,26,9,0.00,40.00,12,-4,29,0.00
2012-3-11,67.0,53.4,40.0,29.0,19.7,7.0,59,31,10,0.00,40.00,9,4,19,0.00
2012-3-12,57.0,49.4,45.0,49.0,39.8,-99.9,88,73,34,0.00,40.00,7,-7,19,0.00
2012-3-13,62.0,48.6,36.0,42.0,21.9,-4.0,77,45,7,0.00,40.00,9,4,16,0.00
2012-3-14,79.0,56.5,33.0,52.0,39.3,24.0,82,56,30,0.00,40.00,10,4,19,0.00
2012-3-15,71.0,54.5,44.0,48.0,37.4,-99.9,89,59,27,0.00,40.00,6,-8,16,0.00
2012-3-16,75.0,55.8,39.0,52.0,39.4,30.0,85,58,30,0.00,40.00,4,2,11,0.00
2012-3-17,82.0,68.4,55.0,57.0,50.2,40.0,88,58,23,0.00,40.00,11,4,20,0.00
2012-3-18,82.0,68.3,54.0,54.0,49.4,43.0,86,55,25,0.00,40.00,7,3,17,0.00
2012-3-19,75.0,65.0,55.0,58.0,52.1,46.0,88,66,39,0.00,40.00,9,2,26,0.00
2012-3-20,80.0,67.7,56.0,58.0,46.4,37.0,88,54,22,0.00,40.00,9,3,20,0.00
2012-3-21,80.0,68.8,59.0,52.0,45.6,39.0,78,46,25,0.00,40.00,10,4,21,0.00
2012-3-22,72.0,61.9,56.0,56.0,51.0,44.0,88,70,38,0.00,40.00,9,4,20,0.00
2012-3-23,59.0,55.9,53.0,56.0,52.2,49.0,88,87,84,0.00,40.00,7,4,11,0.00
2012-3-24,64.0,55.9,52.0,53.0,48.5,-99.9,88,79,58,0.00,40.00,7,-6,11,0.00
2012-3-25,63.0,55.0,42.0,52.0,30.9,5.0,88,50,14,0.00,40.00,13,5,20,0.00
2012-3-26,42.0,33.4,28.0,25.0,17.1,12.0,56,51,29,0.00,40.00,10,8,19,0.00
2012-3-28,53.0,47.9,38.0,30.0,26.9,25.0,62,44,37,0.00,40.00,14,7,27,0.00
2012-3-29,51.0,35.4,26.0,31.0,24.0,17.0,88,67,28,0.00,40.00,7,2,16,0.00
2012-3-30,39.0,35.5,33.0,36.0,31.1,23.0,89,84,65,0.00,40.00,6,4,15,0.00
2012-3-31,42.0,38.1,35.0,36.0,33.0,32.0,89,82,69,0.00,40.00,6,1,11,0.00
2012-4-1,62.0,45.0,40.0,39.0,36.0,26.0,88,74,25,0.00,40.00,6,2,13,0.00
2012-4-2,59.0,45.7,39.0,36.0,33.2,24.0,85,64,26,0.00,40.00,7,3,18,0.00
2012-4-3,58.0,47.4,38.0,42.0,35.5,21.0,88,66,23,0.00,40.00,10,4,17,0.00
2012-4-4,62.0,38.7,27.0,32.0,21.4,0.0,88,59,8,0.00,40.00,9,3,15,0.00
2012-4-5,52.0,37.6,30.0,26.0,20.8,11.0,75,53,19,0.00,40.00,11,5,19,0.00
2012-4-6,60.0,37.8,26.0,28.0,20.9,16.0,80,54,18,0.00,40.00,4,2,9,0.00
2012-4-7,64.0,42.2,28.0,45.0,31.0,17.0,88,70,16,0.00,40.00,7,2,14,0.00
2012-4-8,61.0,42.7,34.0,41.0,24.8,2.0,88,56,10,0.00,40.00,13,3,29,0.00
2012-4-9,49.0,40.5,34.0,24.0,15.7,9.0,68,37,23,0.00,40.00,12,5,30,0.00
2012-4-10,40.0,34.1,29.0,14.0,11.6,9.0,54,40,28,0.00,40.00,13,7,22,0.00
2012-4-11,58.0,38.6,29.0,26.0,18.8,13.0,74,47,21,0.00,40.00,11,3,16,0.00
2012-4-12,63.0,37.7,25.0,33.0,21.8,6.0,88,63,10,0.00,40.00,6,1,13,0.00
2012-4-13,59.0,42.9,34.0,39.0,29.1,18.0,82,61,20,0.00,40.00,6,-16,22,0.00
2012-4-14,75.0,53.8,48.0,46.0,38.3,-99.9,88,64,14,0.00,40.00,9,4,17,0.00
2012-4-15,75.0,63.1,54.0,62.0,53.7,39.0,88,74,42,0.00,40.00,13,4,27,0.00
2012-4-16,64.0,45.6,35.0,59.0,33.2,20.0,83,62,41,0.00,40.00,14,8,35,0.00
2012-4-17,56.0,38.7,27.0,33.0,23.7,15.0,83,58,21,0.00,40.00,6,2,13,0.00
2012-4-18,66.0,48.1,41.0,45.0,37.3,31.0,89,70,27,0.00,40.00,12,3,26,0.00
2012-4-19,52.0,40.5,32.0,37.0,31.0,25.0,90,71,41,0.00,40.00,12,6,20,0.00
2012-4-20,53.0,38.1,33.0,32.0,27.2,8.0,90,70,17,0.00,40.00,11,6,24,0.00
2012-4-21,57.0,37.0,26.0,30.0,20.6,-99.9,87,60,16,0.00,40.00,6,1,12,0.00
2012-4-22,56.0,42.4,34.0,24.0,17.9,6.0,55,40,13,0.00,40.00,8,4,14,0.00
2012-4-23,58.0,41.4,32.0,30.0,20.9,2.0,80,50,12,0.00,40.00,11,3,20,0.00
2012-4-24,66.0,43.0,29.0,26.0,18.4,11.0,78,45,13,0.00,40.00,9,2,17,0.00
2012-4-25,50.0,46.1,43.0,39.0,33.3,25.0,82,62,41,0.00,40.00,7,2,13,0.00
2012-4-26,51.0,44.8,37.0,42.0,28.8,9.0,86,58,20,0.00,40.00,12,6,22,0.00
2012-4-27,57.0,36.0,24.0,26.0,10.6,-99.9,87,47,14,0.00,40.00,7,-61,12,0.00
2012-4-28,49.0,42.3,35.0,28.0,22.0,-99.9,66,46,32,0.00,40.00,11,5,19,0.00
2012-4-29,61.0,40.3,30.0,38.0,26.2,10.0,90,66,15,0.00,40.00,6,2,15,0.00
2012-4-30,51.0,45.9,41.0,44.0,40.0,38.0,90,81,64,0.00,40.00,6,2,11,0.00
2012-5-1,71.0,49.9,35.0,52.0,38.4,32.0,89,70,25,0.00,40.00,4,1,14,0.00
2012-5-2,81.0,62.6,56.0,58.0,52.4,43.0,88,72,27,0.00,40.00,9,3,21,0.00
2012-5-3,65.0,63.4,62.0,60.0,59.1,58.0,87,86,77,0.00,40.00,3,1,7,0.00
2012-5-6,49.0,49.0,49.0,40.0,40.0,40.0,71,71,71,0.00,40.00,4,4,8,0.00
2012-5-8,67.0,67.0,67.0,32.0,32.0,32.0,28,28,28,0.00,40.00,4,4,14,0.00
2012-5-10,35.0,35.0,35.0,31.0,31.0,31.0,84,84,84,0.00,40.00,0,0,0,0.00
2012-5-14,74.0,74.0,74.0,30.0,30.0,30.0,20,20,20,0.00,40.00,6,6,9,0.00
2012-5-15,73.0,73.0,73.0,39.0,39.0,39.0,29,29,29,0.00,40.00,7,7,14,0.00
2012-5-31,48.0,48.0,48.0,44.0,44.0,44.0,85,85,85,0.00,40.00,3,3,6,0.00
2012-6-2,60.0,60.0,60.0,33.0,33.0,33.0,37,37,37,0.00,40.00,3,3,10,0.00
2012-6-7,63.0,63.0,63.0,53.0,53.0,53.0,71,71,71,0.00,40.00,0,0,2,0.00
2012-6-14,66.0,66.0,66.0,35.0,35.0,35.0,32,32,32,0.00,40.00,1,1,4,0.00
2012-6-23,-200.0,0.0,200.0,-99.9,-99.9,-99.9,0,0,100,0.00,40.00,0,-999,0,0.00
2012-6-29,60.0,60.0,60.0,54.0,54.0,54.0,79,79,79,0.00,40.00,0,0,2,0.00
2012-7-5,75.0,75.0,75.0,66.0,66.0,66.0,73,73,73,0.00,40.00,2,2,4,0.00
2012-7-20,68.0,68.0,68.0,54.0,54.0,54.0,61,61,61,0.00,40.00,0,0,4,0.00
2012-7-21,91.0,73.0,66.0,61.0,58.2,51.0,75,62,26,0.00,40.00,7,3,16,0.00
2012-7-25,95.0,83.1,78.0,69.0,66.3,57.0,76,58,28,0.00,40.00,9,3,20,0.00
2012-7-26,89.0,75.8,66.0,69.0,64.1,39.0,87,71,18,0.00,40.00,11,2,22,0.00
2012-7-27,79.0,69.2,63.0,64.0,56.1,45.0,88,66,30,0.00,40.00,10,4,19,0.00
2012-7-28,88.0,67.8,56.0,61.0,51.6,35.0,88,64,15,0.00,40.00,6,1,11,0.00
2012-7-29,85.0,72.0,60.0,62.0,56.4,52.0,85,61,34,0.00,40.00,7,2,11,0.00
2012-7-30,95.0,70.7,60.0,67.0,58.3,49.0,87,70,21,0.00,40.00,9,2,16,0.00
2012-7-31,91.0,69.9,63.0,59.0,55.0,40.0,85,62,20,0.00,40.00,5,2,11,0.00
2012-8-1,96.0,76.6,54.0,58.0,48.6,31.0,88,47,10,0.00,40.00,7,3,15,0.00
2012-8-2,88.0,77.5,70.0,63.0,58.0,52.0,78,54,30,0.00,40.00,15,4,42,0.00
2012-8-3,93.0,74.2,63.0,68.0,59.2,42.0,88,66,17,0.00,40.00,6,3,14,0.00
2012-8-4,80.0,71.7,66.0,67.0,62.3,53.0,88,74,41,0.00,40.00,9,3,21,0.00
2012-8-5,78.0,66.8,57.0,59.0,44.0,31.0,81,50,18,0.00,40.00,12,6,21,0.00
2012-8-6,83.0,60.5,47.0,53.0,44.5,32.0,89,64,16,0.00,40.00,6,1,11,0.00
2012-8-7,88.0,73.2,61.0,56.0,47.4,31.0,80,45,14,0.00,40.00,9,3,17,0.00
2012-8-8,80.0,68.2,57.0,58.0,50.0,43.0,87,57,29,0.00,40.00,6,3,13,0.00
2012-8-9,65.0,60.8,58.0,61.0,55.9,54.0,88,84,67,0.00,40.00,7,3,11,0.00
2012-8-10,75.0,64.9,55.0,56.0,42.3,31.0,87,51,21,0.00,40.00,11,6,20,0.00
2012-8-11,77.0,62.5,50.0,50.0,38.3,-99.9,82,50,21,0.00,40.00,8,-4,16,0.00
2012-8-12,75.0,60.5,51.0,53.0,37.3,-99.9,87,54,24,0.00,40.00,4,-52,9,0.00
2012-8-13,84.0,69.6,62.0,58.0,46.9,-99.9,85,53,15,0.00,40.00,7,-7,12,0.00
2012-8-14,63.0,58.6,56.0,58.0,53.8,51.0,88,84,71,0.00,40.00,2,1,4,0.00
2012-8-15,84.0,63.4,51.0,53.0,40.1,-99.9,87,53,23,0.00,40.00,6,-48,14,0.00
2012-8-16,73.0,65.1,60.0,62.0,44.0,-99.9,87,54,34,0.00,40.00,9,-34,22,0.00
2012-8-17,74.0,60.3,48.0,48.0,32.7,-99.9,85,45,14,0.00,40.00,9,-18,16,0.00
2012-8-18,79.0,59.4,41.0,54.0,38.7,25.0,88,58,14,0.00,40.00,6,2,12,0.00
2012-8-19,75.0,63.1,52.0,53.0,42.7,30.0,87,54,21,0.00,40.00,7,3,15,0.00
2012-8-20,68.0,23.1,43.0,45.0,-40.1,-99.9,86,26,22,0.00,40.00,6,-565,8,0.00
2012-8-21,58.0,7.2,45.0,49.0,-79.0,-99.9,88,12,62,0.00,40.00,0,-854,2,0.00
2012-8-22,53.0,10.7,49.0,46.0,-69.3,-99.9,86,17,77,0.00,40.00,0,-789,1,0.00
2012-8-23,-200.0,0.0,200.0,-99.9,-99.9,-99.9,0,0,100,0.00,40.00,0,-999,0,0.00
2012-10-15,58.0,46.4,36.0,34.0,28.7,22.0,86,56,26,0.00,40.00,4,1,9,0.00
2012-10-16,68.0,53.2,38.0,44.0,36.9,32.0,86,59,27,0.00,40.00,5,-8,17,0.00
2012-10-17,66.0,53.6,42.0,53.0,45.5,38.0,87,77,41,0.00,40.00,6,2,17,0.00
2012-10-18,52.0,46.0,42.0,48.0,40.9,36.0,87,82,64,0.00,40.00,7,3,13,0.00
2012-10-19,48.0,43.8,41.0,41.0,38.0,33.0,87,81,57,0.00,40.00,8,3,17,0.00
2012-10-20,54.0,44.2,34.0,41.0,36.1,31.0,88,75,50,0.00,40.00,7,2,11,0.00
2012-10-21,62.0,45.1,29.0,45.0,33.5,26.0,89,69,29,0.00,40.00,4,1,9,0.00
2012-10-22,59.0,52.6,44.0,48.0,43.7,40.0,87,73,54,0.00,40.00,8,4,16,0.00
2012-10-23,60.0,53.6,49.0,56.0,49.3,44.0,87,86,82,0.00,40.00,4,2,11,0.00
2012-10-24,70.0,63.7,59.0,64.0,59.5,55.0,87,86,77,0.00,40.00,6,1,12,0.00
2012-10-25,69.0,56.9,36.0,62.0,50.4,24.0,87,79,62,0.00,40.00,12,5,26,0.00
2012-10-26,42.0,36.7,32.0,27.0,19.2,12.0,68,51,35,0.00,40.00,9,5,21,0.00
2012-10-27,41.0,33.2,27.0,22.0,13.3,1.0,75,49,18,0.00,40.00,7,2,15,0.00
2012-10-28,45.0,32.8,20.0,25.0,12.8,4.0,87,51,19,0.00,40.00,4,1,9,0.00
2012-10-29,48.0,30.6,20.0,26.0,15.0,6.0,87,61,18,0.00,40.00,5,1,9,0.00
2012-10-30,45.0,36.3,32.0,25.0,16.8,6.0,73,48,20,0.00,40.00,12,7,23,0.00
2012-10-31,46.0,35.7,30.0,24.0,15.3,4.0,75,47,19,0.00,40.00,11,5,18,0.00
2012-11-1,44.0,38.1,31.0,26.0,17.1,6.0,67,43,30,0.00,40.00,11,4,19,0.00
2012-11-2,45.0,33.6,25.0,27.0,19.8,12.0,87,61,28,0.00,40.00,4,2,9,0.00
2012-11-3,43.0,31.3,26.0,23.0,20.6,19.0,83,66,40,0.00,40.00,5,-9,9,0.00
2012-11-4,47.0,28.5,17.0,21.0,17.6,15.0,90,68,32,0.00,40.00,2,-74,4,0.00
2012-11-5,38.0,26.1,18.0,22.0,18.3,15.0,89,74,44,0.00,40.00,8,1,13,0.00
2012-11-6,35.0,33.1,23.0,32.0,29.9,20.0,89,88,82,0.00,40.00,3,1,9,0.00
2012-11-7,39.0,35.3,33.0,36.0,31.8,31.0,89,87,74,0.00,40.00,4,1,6,0.00
2012-11-8,49.0,38.7,34.0,33.0,30.4,27.0,87,74,43,0.00,40.00,7,2,13,0.00
2012-11-9,45.0,39.0,30.0,37.0,32.9,26.0,89,79,66,0.00,40.00,9,4,19,0.00
2012-11-10,61.0,46.8,39.0,52.0,41.7,34.0,88,83,63,0.00,40.00,7,-10,19,0.00
2012-11-11,61.0,49.1,30.0,51.0,41.4,25.0,87,77,49,0.00,40.00,9,-7,20,0.00
2012-11-12,30.0,25.6,23.0,25.0,10.8,6.0,81,54,43,0.00,40.00,12,8,22,0.00
2012-11-13,38.0,28.0,21.0,17.0,11.8,7.0,73,52,27,0.00,40.00,6,2,12,0.00
2012-11-14,48.0,35.5,32.0,26.0,17.4,-99.9,60,50,30,0.00,40.00,5,2,12,0.00
2012-11-15,51.0,38.5,32.0,28.0,25.0,20.0,82,59,29,0.00,40.00,6,3,14,0.00
2012-11-16,43.0,34.1,23.0,33.0,23.8,18.0,86,68,44,0.00,40.00,7,2,11,0.00
2012-11-17,52.0,39.5,35.0,34.0,31.3,27.0,89,74,38,0.00,40.00,2,1,11,0.00
2012-11-18,56.0,40.0,31.0,33.0,26.9,18.0,86,63,22,0.00,40.00,3,1,10,0.00
2012-11-19,47.0,42.2,34.0,35.0,32.5,27.0,81,69,58,0.00,40.00,2,0,4,0.00
2012-11-20,59.0,38.4,30.0,39.0,31.5,27.0,89,79,33,0.00,40.00,4,0,9,0.00
2012-11-21,60.0,39.7,28.0,40.0,31.4,25.0,89,76,30,0.00,40.00,6,2,16,0.00
2012-11-22,62.0,47.8,33.0,39.0,33.4,22.0,76,59,32,0.00,40.00,12,6,29,0.00
2012-11-23,33.0,26.6,22.0,23.0,14.9,11.0,77,61,52,0.00,40.00,14,-46,31,0.00
2012-11-24,30.0,24.2,20.0,17.0,8.8,6.0,67,52,40,0.00,40.00,12,3,17,0.00
2012-11-25,33.0,28.3,25.0,23.0,17.0,6.0,87,64,44,0.00,40.00,12,5,21,0.00
2012-11-26,25.0,20.9,13.0,19.0,8.2,0.0,76,58,41,0.00,40.00,7,-16,16,0.00
2012-11-27,31.0,20.3,10.0,10.0,6.4,3.0,77,57,33,0.00,40.00,9,4,16,0.00
2012-11-28,34.0,27.1,21.0,19.0,14.6,10.0,83,60,41,0.00,40.00,6,2,12,0.00
2012-11-29,41.0,31.2,23.0,26.0,20.8,18.0,83,67,43,0.00,40.00,9,3,22,0.00
2012-11-30,32.0,29.5,27.0,30.0,26.6,24.0,91,88,83,0.00,40.00,10,6,20,0.00
2012-12-1,46.0,38.8,32.0,43.0,35.6,30.0,91,88,76,0.00,40.00,4,2,9,0.00
2012-12-2,47.0,40.6,37.0,43.0,36.8,33.0,88,87,82,0.00,40.00,6,2,10,0.00
2012-12-3,58.0,46.5,39.0,54.0,42.8,34.0,88,87,73,0.00,40.00,7,2,18,0.00
2012-12-4,43.0,37.9,22.0,34.0,22.4,1.0,73,55,29,0.00,40.00,9,6,20,0.00
2012-12-5,30.0,19.2,13.0,20.0,8.8,4.0,80,64,47,0.00,40.00,2,1,6,0.00
2012-12-6,42.0,34.1,31.0,28.0,21.7,-99.9,70,65,57,0.00,40.00,8,3,16,0.00
2012-12-7,36.0,31.7,28.0,22.0,18.0,15.0,78,58,41,0.00,40.00,5,3,9,0.00
2012-12-8,36.0,27.8,24.0,23.0,17.6,10.0,85,67,37,0.00,40.00,4,2,9,0.00
2012-12-9,31.0,29.1,25.0,27.0,23.6,18.0,89,81,71,0.00,40.00,9,6,16,0.00
2012-12-10,30.0,25.1,20.0,25.0,20.2,16.0,89,83,73,0.00,40.00,9,3,12,0.00
2012-12-11,22.0,21.0,19.0,17.0,14.3,12.0,84,75,64,0.00,40.00,9,5,16,0.00
2012-12-12,38.0,23.2,7.0,22.0,13.4,3.0,84,68,42,0.00,40.00,6,2,17,0.00
2012-12-13,41.0,31.4,19.0,19.0,14.4,11.0,83,51,28,0.00,40.00,7,3,16,0.00
2012-12-14,37.0,27.5,15.0,31.0,22.0,12.0,89,81,54,0.00,40.00,6,2,16,0.00
2012-12-15,39.0,36.6,33.0,35.0,33.4,30.0,88,88,87,0.00,40.00,5,2,18,0.00
2012-12-16,37.0,35.3,31.0,34.0,32.1,27.0,88,88,86,0.00,40.00,7,2,14,0.00
2012-12-17,31.0,26.5,25.0,27.0,18.1,15.0,87,71,62,0.00,40.00,7,3,16,0.00
2012-12-18,31.0,23.8,19.0,22.0,16.7,14.0,85,75,54,0.00,40.00,2,1,6,0.00
2012-12-19,32.0,29.8,27.0,25.0,23.3,22.0,86,77,69,0.00,40.00,2,2,5,0.00
2012-12-20,32.0,30.5,28.0,29.0,26.3,22.0,88,85,73,0.00,40.00,14,10,29,0.00
2012-12-21,29.0,22.1,12.0,18.0,12.1,4.0,72,66,56,0.00,40.00,17,9,29,0.00
2012-12-22,29.0,16.2,5.0,8.0,3.3,0.0,79,60,33,0.00,40.00,3,2,7,0.00
2012-12-23,24.0,19.0,13.0,15.0,7.8,4.0,80,63,42,0.00,40.00,5,-81,11,0.00
2012-12-24,24.0,17.9,14.0,9.0,8.2,7.0,80,67,49,0.00,40.00,6,3,11,0.00
2012-12-25,24.0,12.0,2.0,7.0,2.3,-3.0,81,67,37,0.00,40.00,4,2,11,0.00
2012-12-26,25.0,15.5,5.0,11.0,7.2,1.0,82,70,55,0.00,40.00,6,3,9,0.00
2012-12-27,23.0,20.6,17.0,13.0,9.9,8.0,73,64,52,0.00,40.00,9,3,12,0.00
2012-12-28,24.0,20.4,14.0,19.0,15.8,8.0,87,82,76,0.00,40.00,7,3,9,0.00
2012-12-29,27.0,21.8,18.0,20.0,16.2,11.0,87,79,65,0.00,40.00,8,4,14,0.00
2012-12-30,22.0,16.1,10.0,12.0,6.8,4.0,78,68,45,0.00,40.00,6,3,11,0.00
2012-12-31,23.0,15.3,0.0,16.0,4.8,-7.0,82,65,45,0.00,40.00,12,4,22,0.00
2013-1-1,14.0,3.2,-12.0,1.0,-7.7,-18.0,77,63,36,0.00,40.00,5,2,11,0.00